www.pogodaiklimat.ru
ПОГОДА в Пудасъярви
Время
(UTC), дата
12 12.10
15 12.10
18 12.10
21 12.10
00 13.10
03 13.10
06 13.10
09 13.10
12 13.10
15 13.10
18 13.10
21 13.10
00 14.10
03 14.10
06 14.10
09 14.10
12 14.10
15 14.10
18 14.10
21 14.10
00 15.10
03 15.10
06 15.10
09 15.10
12 15.10
15 15.10
18 15.10
21 15.10
00 16.10
03 16.10
06 16.10
09 16.10
12 16.10
15 16.10
18 16.10
21 16.10
00 17.10
03 17.10
06 17.10
09 17.10
12 17.10
15 17.10
18 17.10
21 17.10
00 18.10
03 18.10
06 18.10
09 18.10
12 18.10
15 18.10
18 18.10
21 18.10
00 19.10
03 19.10
06 19.10
Ветер
(напр.,м/с)
Видим. Явления Облачность Т
(С)
Тd
(С)
f
(%)
Тe
(С)
Тes
(С)
Комфортность P
(гПа)
Po
(гПа)
Тmin
(С)
Tmax
(С)
R
(мм)
R24
(мм)
S
(см)
С 3-4
{5}
6000 м дымка {ливн. осадки, туман} 10/10 100 м
[]
+3.7 +3.5 99 -0 -0 по сезону 990.9 976.2
С 3-5
{5}
3400 м слаб. морось {туман} 10/10 50 м
[]
+2.7 +2.7 100 -2 -2 по сезону 992.0 977.2
СЗ 3-3
{5}
6000 м дымка {туман} 10/10 50 м
[]
+1.9 +1.9 100 -3 -3 прохладно 993.2 978.3 +1.7 +3.7
СЗ 3-4
{4}
2600 м дымка 10/10 50 м
[]
+1.5 +1.5 100 -3 -3 прохладно 994.8 979.9
СЗ 3-4
{5}
13 км 10/10 50 м
[]
+0.6 +0.6 100 -4 -4 прохладно 995.9 980.9
СЗ 3-4
{4}
6000 м дымка 9/9 100 м
[]
+0.2 +0.1 99 -5 -5 холодно 997.2 982.1
З 3-4
{4}
2800 м слаб. снег {туман} 10/0 50 м
[]
-0.8 -0.8 100 -6 -6 холодно 998.4 983.3 -0.9 +1.9 <0.5
З 2-4
{4}
10 км в посл. час переохл. осадки (гололёд) 10/0 50 м
[]
-0.4 -0.4 100 -4 -4 прохладно 1000.1 985.0
З 2-3
{3}
35 км {ливн. осадки, снег} 10/10 200 м
[]
+0.2 -0.4 96 -4 -4 прохладно 1001.9 986.8
ЮЗ 2-3
{3}
1400 м слаб. снег {туман} 9/9 <50 м
[]
-0.1 -0.1 100 -4 -4 прохладно 1003.5 988.4 0.6
З 2-3
{4}
8000 м слаб. снег {туман} 9/9 50 м
[]
-0.3 -0.3 100 -4 -4 прохладно 1005.1 989.9 -1.0 +0.2 0.3
ЮЗ 2-3
{4}
9000 м снежные зёрна 10/10 200 м
[]
-0.9 -0.9 100 -5 -5 холодно 1006.6 991.3
ЮЗ 2-4
{4}
13 км в посл. час переохл. осадки (гололёд) 10/10 50 м
[]
-1.0 -1.0 100 -5 -5 холодно 1007.6 992.4
ЮЗ 1-2
{3}
1400 м в посл. час зёрна {ливн. осадки} 10/10 50 м
[]
-0.6 -0.6 100 -3 -3 прохладно 1007.6 992.3
Ю 2-3
{3}
35 км {ливн. осадки, снег} 10/10 300 м
[]
-0.4 -0.4 100 -4 -4 прохладно 1008.1 992.8 -1.2 -0.2 3
ЮЗ 2-3
{3}
15 км слаб. ливневой дождь 10/10 50 м
[]
+0.5 +0.2 98 -3 -3 прохладно 1008.7 993.5
З 1-2
{2}
900 м сильная пыльная буря {ливн. осадки} 10/0 50 м
[]
+0.3 +0.3 100 -2 -1 по сезону 1009.1 993.8
СЗ 2-4
{4}
11 км в посл. час морось 10/10 50 м
[]
+0.2 +0.2 100 -4 -4 прохладно 1010.2 994.9
З 3-4
{4}
3800 м дымка 10/10 50 м
[]
0.0 0.0 100 -5 -5 холодно 1011.5 996.2 -0.4 +0.8
З 2-3
{3}
9000 м дымка 10/0 50 м
[]
0.0 0.0 100 -4 -4 прохладно 1013.0 997.7
З 1-2
{3}
4100 м снежные зёрна {ливн. осадки} 10/10 <50 м
[]
+0.1 +0.1 100 -2 -2 по сезону 1014.7 999.4
ЮЗ 1-2
{3}
11 км слаб. ливневой снег 10/10 50 м
[]
+0.1 +0.1 100 -2 -2 по сезону 1016.7 1001.3
ЮЗ 1-2
{2}
50 км {ливн. осадки, снег} 9/0 2000 м
[]
-0.2 -0.2 100 -3 -3 прохладно 1018.1 1002.7 -0.2 +0.1 <0.5
Ю 1-2
{2}
35 км ясно +1.7 +0.1 89 -0 +1 по сезону 1019.9 1004.5
Ю 2-3
{4}
50 км 6/6 300 м
[]
+2.6 +1.3 91 -1 -0 по сезону 1020.9 1005.6
Ю 2-4
{4}
50 км 10/10 600 м
[]
+2.2 +1.2 93 -1 -1 по сезону 1021.1 1005.8
Ю 2-4
{4}
50 км 9/9 600 м
[]
+1.3 +0.3 93 -2 -2 по сезону 1020.9 1005.5 -0.3 +3.5
ЮВ 2-4
{5}
21 км ливневой дождь 9/9 200 м
[]
+1.1 +0.6 96 -3 -3 прохладно 1020.4 1005.1 0.1
Ю 3-4
{4}
800 м снег {ливн. осадки} 9/9 <50 м
[]
+0.3 +0.3 100 -5 -5 холодно 1019.8 1004.4 0.6
Ю 2-3
{5}
4100 м переохл. дождь (гололёд) {снег} 9/0 50 м
[]
+0.7 +0.7 100 -3 -3 прохладно 1019.4 1004.0 0.1
Ю 2-3
{4}
500 м сильная пыльная буря {ливн. осадки} ?/? +1.5 +1.5 100 -2 -2 по сезону 1019.3 1003.9 +0.2 +1.5 <0.5
Ю 2-3
{4}
600 м сильная пыльная буря {метель} ?/? +2.4 +2.4 100 -1 -1 по сезону 1019.7 1004.5
Ю 2-2
{2}
12 км морось {туман} 9/9 50 м
[]
+2.9 +2.9 100 -1 -0 по сезону 1019.4 1004.2
ЮВ 1-1
{2}
4300 м дымка {ливн. осадки, дождь} 9/0 1000 м
[]
+1.6 +1.6 100 -1 -1 по сезону 1019.2 1003.9
СВ 1-2
{2}
8000 м дымка {ливн. осадки, дождь} 9/9 <50 м
[]
+1.2 +1.2 100 -1 -1 по сезону 1019.2 1003.9 +0.8 +4.0
ЮВ 1-1
{2}
19 км 9/9 <50 м
[]
+1.3 +1.3 100 -1 -1 по сезону 1019.6 1004.3
СВ 1-2
{2}
1900 м дымка 9/9 <50 м
[]
+0.7 +0.7 100 -2 -2 по сезону 1019.4 1004.1
В 1-2
{3}
50 км 10/0 600 м
[]
+0.3 -0.2 96 -2 -2 по сезону 1019.3 1003.9
В 1-2
{3}
50 км 10/0 600 м
[]
-0.3 -1.0 95 -3 -3 прохладно 1019.5 1004.1 -0.4 +1.7 <0.5
В 2-3
{5}
50 км слаб. ливневой дождь 10/10 300 м
[]
+0.2 -1.6 88 -3 -3 прохладно 1019.8 1004.5
В 4-6
{7}
20 км слаб. ливневой дождь 9/9 300 м
[]
+0.4 -2.1 83 -5 -5 холодно 1018.8 1003.5
В 2-4
{6}
50 км {ливн. осадки, снег} 10/0 300 м
[]
0.0 -2.3 84 -4 -4 прохладно 1018.0 1002.6
В 3-6
{7}
50 км {ливн. осадки, снег} 9/0 300 м
[]
-0.7 -2.5 88 -6 -6 холодно 1017.0 1001.6 -0.7 +0.6
В 2-4
{5}
50 км 10/0
[]
-0.7 -2.4 88 -4 -4 прохладно 1016.2 1000.8
В 3-5
{5}
50 км 10/0 2000 м
[]
-0.6 -2.3 88 -5 -5 холодно 1014.9 999.5
В 2-4
{5}
8000 м слаб. снег {дождь} 10/10 600 м
[]
-0.9 -1.3 97 -5 -5 холодно 1013.8 998.4
ЮВ 2-4
{5}
5000 м снежные зёрна {дождь} 10/10 100 м
[]
-0.6 -0.8 99 -5 -5 холодно 1012.6 997.2 -1.0 -0.4 <0.5
ЮВ 2-3
{4}
7000 м ливневой дождь 10/10 50 м
[]
+0.3 +0.2 99 -4 -4 прохладно 1012.1 996.8
Ю 2-3
{5}
5000 м в посл. час дождь 10/10 50 м
[]
+1.0 +1.0 100 -3 -3 прохладно 1011.0 995.8
Ю 2-4
{4}
2700 м в посл. час дождь со снегом {ливн. осадки} 10/10 <50 м
[]
+1.3 +1.3 100 -2 -2 по сезону 1010.4 995.2
Ю 2-3
{4}
500 м туман {ливн. осадки, дождь} ?/? +1.6 +1.6 100 -2 -2 по сезону 1009.9 994.8 -0.6 +1.6
Ю 2-3
{4}
700 м туман {ливн. осадки, дождь} ?/? +2.2 +2.2 100 -1 -1 по сезону 1009.1 994.0
Ю 2-3
{4}
4900 м слаб. ливневой дождь 10/0 50 м
[]
+2.8 +2.8 100 -1 -1 по сезону 1008.0 992.9 0.4
Ю 2-3
{3}
800 м сильная пыльная буря {ливн. осадки, метель} ?/? +3.3 +3.3 100 0 0 по сезону 1007.2 992.2
Ю 2-2
{3}
800 м туман {ливн. осадки} ?/? +3.8 +3.8 100 +1 +1 по сезону 1007.0 992.0 +1.6 +3.8 <0.5
Местоположение метеостанции Пудасъярви (Финляндия): широта 65.40 долгота 26.96 высота над уровнем моря 120 м.
В архиве по умолчанию представлена погода в Пудасъярви за последнюю неделю. Архивные данные за месяц целиком и за предыдущие месяцы, начиная с января 2011 года, Вы можете получить, выбрав интересующий диапазон дат из раскрывающегося списка и нажав кнопку "Найти!".
*Определитесь, кто Вы:
Внимание! Время в таблицах - всемирное. Для получения местного времени необходимо прибавить поправку, которая равна 1 ч.
Смотрите также архив погоды в соседних городах и на ближайших метеорологических станциях:
Партнеры нашего сайта:      
Пояснения к столбцам:
  • Ветер - указаны скорость ветра в м/с - средняя за 10 мин, порывы в срок и между сроками (в фигурных скобках) и направление, откуда дует ветер: С - северный,
  • СВ - северо-восточный, В - восточный, ЮВ - юго-восточный, Ю - южный, ЮЗ - юго-западный, З - западный, СЗ - северо-западный.
  • Видимость - горизонтальная дальность видимости в метрах или километрах. При видимости от 1 до 10 км при отсутствии осадков обычно наблюдается дымка, при ухудшении видимости до 1 км и менее - туман. В сухую погоду видимость может ухудшаться дымом, пылью или мглою.
  • Явления - указаны атмосферные явления, наблюдавшиеся в срок или в последний час перед сроком; фигурными скобками обозначены явления, наблюдавшиеся между сроками (за 1-3 часа до срока); квадратными скобками обозначены град или гололедные отложения с указанием их диаметра в мм.
  • Облачность - указаны через наклонную черту общая и нижняя облачность в баллах и высота нижней границы облаков в метрах; квадратными скобками обозначены формы облаков: Ci - перистые, Cs - перисто-слоистые, Cc - перисто-кучевые, Ac - высококучевые, As - высокослоистые, Sc - слоисто-кучевые, Ns - слоисто-дождевые, Cu - кучевые, Cb - кучево-дождевые. Подробнее классификацию облаков см. в Атласе облаков (PDF).
  • T - Температура воздуха - температура, измеренная на высоте 2 м над землей.
  • Td - Температура точки росы - температура, при понижении до которой содержащийся в воздухе водяной пар достигнет насыщения.
  • f - Относительная влажность воздуха - влажноcть воздуха, измеренная на высоте 2 м над землей.
  • Te - Эффективная температура - температура, которую ощущает одетый по сезону человек в тени. Характеристика душности погоды. При расчете учитывается влияние влажности воздуха и скорости ветра на теплоощущения человека.
  • Tes - Эффективная температура на солнце - температура, которую ощущает человек, с поправкой на солнечный нагрев. Характеристика знойности погоды. Зависит от высоты солнца над горизонтом, облачности и скорости ветра. Ночью, в пасмурную погоду, а также при ветре 12 м/с и более поправка равна нулю.
  • P - Атмосферное давление - приведенное к уровню моря атмосферное давление.
  • Po - Атмосферное давление - измеренное на уровне метеостанции атмосферное давление.
  • Tmin - Минимальная температура - минимум температуры воздуха на высоте 2 м над землей.
  • Tmax - Максимальная температура - максимум температуры воздуха на высоте 2 м над землей.
  • R - Количество осадков - Количество выпавших осадков за период времени, мм. При наведении курсора мыши на число - период времени, за который выпало указанное количество осадков.
  • R24 - Количество осадков - Количество выпавших осадков за 24 часа, мм.
  • S - Снежный покров - Высота снежного покрова, см. При наведении курсора мыши на число - состояние снежного покрова и степень покрытия местности в баллах.